Погода в Красной Слободке

Россия / Оренбургская область     53°13′43″N   52°31′06″E
темп.,
°C
ветер,
м/с
пор.,
м/с
влажн.,
%
обл.,
%
осадки,
мм/ч
давл.,
гПа
погр.,
м
4 марта, чт
чт423:00−7з599585 0.3 1005203
02:00−7зсз5109596 0.2 1006378
05:00−11з499798 0.3 1007165
08:00−12зюз4798100 0.1 1007134
11:00−8юз6129498 0.1 1007378
14:00−5юз7139499 0.4 1005550
17:00−4юз8149399 0.6 1003884
20:00−1юз91696100 1.6 1001967
5 марта, пт
пт523:000зюз101698100 3.7 10011025
02:00−1зюз91592100 1.5 1000934
05:00−1зюз81593100 1.9 1001829
08:00−1юз71397100 0.6 1001757
11:00−1юз61197100 1.8 1002737
14:000з69100100 1.4 1002601
17:00−2ссз3596100 2.3 1005389
20:00−5ссз2396100 0.3 100837
6 марта, сб
сб623:00−10сз239380 0.3 101121
02:00−13зсз129515 0.0 101221
05:00−15з119735 0.0 101420
08:00−13ююз129598 0.0 101320
11:00−10юз229298 0.0 101398
14:00−6з2385100 0.0 1012314
17:00−7сз2293100 0.0 1011197
20:00−9сз2397100 0.1 101171
7 марта, вс
вс723:00−11сз3697100 0.1 101197
02:00−15сз469899 0.1 1012111
05:00−19сз349973 0.1 101355
08:00−21сз3410053 0.0 101551
11:00−18зсз359527 0.0 1016191
14:00−14з359238 0.0 1016285
17:00−10ююз478835 0.0 1015453
20:00−14ююз5119373 0.0 1014283
8 марта, пн
пн823:00−14ю7129384 0.0 1013335
02:00−11ю81493100 0.3 1008522
05:00−7ююз91794100 0.9 1005938
08:00−5юз91694100 2.0 1003982
11:00−6сз4790100 3.1 1005441
14:00−4ююз377998 0.0 1007860
17:00−3ююз6109699 1.1 1005814
20:00−3ююз71396100 1.4 1002789